Regional Weather Roundup
Issued by NWS

Home | Current Version | Previous Version | Graphics & Text | Print | Product List | Glossary On
Versions: 1 2 3 4 5 6 7 8 9 10 11 12 13 14 15 16 17 18 19 20 21 22 23 24 25 26 27 28 29 30 31 32 33 34 35 36 37 38 39 40 41 42 43 44 45 46 47 48 49 50
591
ASUS43 KLSX 241307
RWRMO

WEATHER SUMMARY FOR MISSOURI
NATIONAL WEATHER SERVICE SPRINGFIELD MO
800 AM CDT FRI MAR 24 2017

NOTE: "FAIR" INDICATES FEW OR NO CLOUDS BELOW 12,000 FEET WITH NO
       SIGNIFICANT WEATHER AND/OR OBSTRUCTIONS TO VISIBILITY.
       CURRENT SKY AND/OR WEATHER CONDITIONS ARE NOT AVAILABLE FOR
       CHILLICOTHE AND FARMINGTON.

MOZ001>031-035>038-043-044-053-054-241400-
...NORTHERN AND WESTERN MISSOURI...

CITY           SKY/WX    TMP DP  RH WIND       PRES   REMARKS
KANSAS CTY INT CLOUDY    68  42  38 S22G30    29.81R
KANSAS C DTWN  CLOUDY    70  41  34 S22G29    29.80R
LEE`S SUMMIT   PTCLDY    64  47  53 S8        29.82R
ST JOSEPH      CLOUDY    68  47  46 S14       29.79R
CHILLICOTHE      N/A     62  48  60 SE7       29.85R
KIRKSVILLE     CLEAR     63  32  31 S12       29.88R

$$
MOZ066>068-077>081-088>096-101>105-241400-
...SOUTHWEST MISSOURI...

CITY           SKY/WX    TMP DP  RH WIND       PRES   REMARKS
SPRINGFIELD    CLOUDY    66  48  52 S18G25    29.89F
JOPLIN         CLOUDY    67  39  35 S22G32    29.87R
BRANSON        MOCLDY    64  48  55 SE14G21   29.96F

$$
MOZ032>034-039>042-045>050-055>058-069>072-241400-
...CENTRAL MISSOURI...

CITY           SKY/WX    TMP DP  RH WIND       PRES   REMARKS
COLUMBIA       CLEAR     66  48  52 S17       29.92S
JEFFERSON CITY CLEAR     67  47  48 SE10      29.93R
ROLLA          SUNNY     63  49  60 S13       29.96S
SEDALIA        PTCLDY    65  47  52 S14       29.88R
WHITEMAN AFB   PTCLDY    62  48  60 S10       29.84R
WARRENSBURG    CLOUDY    64  43  45 S14G22    29.83S
OSAGE BEACH    PTCLDY   N/A N/A N/A S12G18    29.93S

$$
MOZ051-052-059>065-241400-
...EAST CENTRAL MISSOURI...

CITY           SKY/WX    TMP DP  RH WIND       PRES   REMARKS
ST LOUIS INTL  MOSUNNY   60  51  72 CALM      30.01F
SPIRIT OF STL  SUNNY     66  51  58 S5        29.99S
ST CHARLES     SUNNY     50  48  93 E7        30.00S

$$
MOZ072>076-082>087-097>100-106>115-241400-
...SOUTH CENTRAL AND SOUTHEAST MISSOURI...

CITY           SKY/WX    TMP DP  RH WIND       PRES   REMARKS
CAPE GIRARDEAU MOSUNNY   62  55  77 S14       30.10R
FARMINGTON     SUNNY     62  54  74 S12       30.07
POPLAR BLUFF   CLOUDY    65  57  75 S14       30.09R
WEST PLAINS    MOSUNNY   61  50  67 S7        30.04S

$$



USA.gov is the U.S. government's official web portal to all federal, state and local government web resources and services.